Wind_Speed
6 8 9 11 12 15 17 18 18 19 20 20 20 20 21 22 22 21 21 21 21 21 21 21 21 22 22 22 22 22 22 22 23 23 23 23 24 24 25 25 26 26 27
6 7 9 11 12 13 15 17 17 17 18 19 20 20 20 21 22 23 23 23 23 23 23 23 23 24 24 24 24 24 24 25 25 26 26 26 26 27 27 28 29 29 30
5 5 8 9 11 11 13 15 16 16 17 19 20 20 20 21 22 23 24 24 24 24 24 24 24 24 24 24 25 26 26 27 27 28 29 29 30 30 30 31 32 33 34
4 5 6 8 9 11 11 13 15 16 17 17 19 19 19 19 21 22 23 24 25 25 24 24 25 25 26 26 26 27 27 28 29 30 31 32 33 34 34 35 36 36 38
5 6 7 8 9 11 11 12 13 14 15 16 17 18 18 19 21 21 22 23 24 25 25 26 26 27 27 28 28 29 30 30 31 32 33 35 36 38 38 39 40 40 41
7 7 8 8 9 10 12 13 14 14 15 16 16 17 18 19 20 21 22 23 24 25 26 27 27 28 29 30 31 32 33 34 35 36 37 38 39 41 42 43 44 45 45
9 9 8 8 9 10 11 12 14 15 14 15 16 17 18 19 20 20 21 23 24 25 27 28 30 31 31 32 33 34 35 36 38 39 40 42 43 44 45 46 47 48 49
11 11 11 11 11 12 12 13 13 14 16 17 18 19 19 20 21 23 25 26 28 29 30 31 32 33 34 35 36 37 38 39 40 41 43 44 45 45 47 48 49 51 52
14 14 13 13 14 14 15 15 15 16 17 18 19 20 21 22 23 25 27 28 30 31 32 33 34 35 36 37 38 39 40 42 43 44 45 46 47 48 50 51 52 54 55
17 17 17 17 17 16 17 18 18 18 20 21 22 23 24 25 26 28 29 31 32 33 34 34 36 37 38 39 41 42 43 45 46 48 49 50 51 52 53 55 56 58 59
20 20 20 20 19 18 19 19 21 21 22 23 24 25 27 29 29 30 32 34 35 35 36 37 38 39 41 42 43 44 46 47 49 50 51 52 54 55 57 59 60 62 63
22 22 23 23 22 22 22 23 24 25 25 26 27 28 29 31 32 33 34 35 36 37 38 39 40 41 42 44 46 47 49 50 51 52 54 55 57 59 60 62 63 64 65
24 24 25 24 24 24 25 25 25 26 27 29 30 30 32 32 33 35 35 36 37 38 39 40 42 43 44 46 47 49 50 51 53 55 56 58 59 60 62 62 63 64 64
25 25 25 25 25 26 26 25 26 27 29 30 30 32 33 34 34 36 36 37 39 40 41 42 43 45 46 48 49 51 52 54 55 56 58 59 60 61 61 62 62 61 61
26 27 26 26 27 27 27 28 29 29 29 30 31 32 32 33 35 37 38 39 41 41 42 43 45 47 48 50 52 53 54 56 57 57 58 58 59 59 59 59 58 58 56
26 26 26 27 27 27 28 29 29 29 29 29 29 30 31 33 36 37 39 41 42 43 44 46 47 49 51 52 53 54 55 56 56 57 57 57 57 56 56 56 55 53 53
24 25 26 26 26 26 26 25 25 26 27 28 30 31 34 36 38 39 41 42 43 45 46 48 49 51 52 53 54 54 55 55 55 55 55 54 54 54 53 52 51 50 49
22 22 22 22 22 23 23 24 26 27 29 31 32 34 36 38 39 41 43 44 45 46 48 50 51 51 52 53 53 53 54 53 53 52 52 51 51 50 49 48 47 46 45
19 20 20 21 22 22 23 25 28 29 31 32 34 36 38 39 41 42 44 45 46 48 49 49 50 50 51 51 51 51 51 50 50 49 49 48 47 46 45 44 43 41 40
16 17 18 20 22 24 25 27 28 30 32 33 35 37 38 40 41 43 44 45 46 47 47 47 48 48 48 48 48 47 47 46 46 45 45 44 43 42 41 39 38 37 36
16 17 19 21 22 24 26 27 29 31 33 34 36 37 39 40 41 42 43 44 44 44 45 45 45 45 45 44 43 43 43 42 42 42 41 40 39 38 37 36 35 34 33
17 19 20 22 24 25 27 28 30 32 34 35 37 37 38 39 39 40 41 41 41 41 41 41 41 41 40 40 40 40 40 40 39 39 38 37 36 35 34 33 33 32 32
18 20 21 23 25 27 28 30 31 33 34 35 35 36 36 37 37 37 37 38 38 38 38 38 38 37 37 37 37 37 37 37 36 35 34 33 33 32 32 31 31 30 30
19 20 22 24 26 27 29 30 31 31 32 32 33 33 34 34 34 34 34 34 34 34 34 34 34 34 34 35 35 34 34 34 33 32 31 31 30 30 30 30 29 29 28
21 22 24 25 26 27 28 28 29 29 29 30 30 31 31 31 31 31 31 31 31 31 31 31 31 31 31 31 32 31 31 31 30 29 29 28 28 28 27 27 27 27 27
23 24 25 25 26 26 26 27 27 27 27 27 28 27 27 28 28 28 28 29 30 30 30 30 29 29 29 30 29 29 29 28 28 27 26 26 25 25 25 25 25 25 25
Wind_Direction
236 224 220 219 220 220 217 215 216 220 224 227 233 235 239 241 242 243 244 247 249 251 254 257 261 264 265 268 269 271 273 275 275 275 274 274 275 276 276 276 278 279 279
233 221 218 220 219 219 218 219 223 224 228 234 236 239 242 243 246 247 247 249 252 254 257 260 263 265 267 269 271 272 274 275 277 276 275 275 275 275 276 277 278 278 279
236 223 218 219 221 223 224 226 227 227 231 236 238 243 246 246 246 248 251 252 254 256 258 261 263 265 266 269 273 274 275 277 277 277 277 277 276 276 277 278 279 279 279
263 235 227 231 232 231 232 231 228 233 236 238 241 244 248 250 249 251 253 255 256 256 258 261 263 266 268 271 273 275 276 277 277 278 278 279 279 279 279 279 279 280 279
272 263 259 252 245 238 240 239 238 237 239 242 244 246 249 249 251 254 255 256 258 259 260 262 264 267 269 272 274 274 275 277 279 280 280 279 280 280 280 280 280 280 280
271 268 268 261 254 250 246 248 247 245 244 246 249 252 254 255 254 256 258 259 262 263 264 265 266 269 272 273 274 275 276 278 280 280 280 280 280 281 281 281 280 280 280
272 267 267 266 263 261 257 254 253 252 251 253 258 262 263 263 261 261 263 264 266 269 269 269 270 271 273 275 276 277 277 279 280 281 281 281 282 282 282 282 281 280 281
274 268 268 270 267 264 262 261 259 260 260 262 264 265 267 268 268 268 269 270 270 271 272 271 271 271 273 274 276 277 278 280 281 281 281 281 282 281 282 282 282 282 282
275 275 272 272 272 269 266 265 270 273 272 272 270 270 271 272 272 271 273 274 274 274 274 273 273 274 274 276 278 279 280 281 281 281 282 282 282 281 281 282 282 282 282
271 273 273 272 277 274 269 270 275 279 279 277 274 274 274 276 277 276 275 276 277 276 275 275 276 277 278 279 280 281 281 281 282 282 282 282 282 282 282 282 283 283 282
269 270 272 272 275 275 276 279 280 280 282 280 278 278 277 277 278 279 278 277 278 276 275 276 278 279 279 280 281 281 282 282 282 282 283 283 283 283 283 284 284 284 284
267 268 271 274 275 277 278 281 282 282 283 280 279 280 281 280 278 278 279 278 278 278 279 279 280 280 280 281 282 283 283 283 283 283 284 284 284 284 285 285 285 286 286
268 270 271 275 276 280 281 281 282 283 283 282 281 282 282 281 280 280 280 280 281 282 282 281 282 282 282 283 283 284 284 284 284 284 285 285 285 285 285 286 286 286 286
271 273 273 275 278 282 283 281 285 285 284 284 284 284 282 279 279 282 283 283 284 284 284 283 283 283 284 285 285 285 285 285 285 285 285 286 286 286 286 286 286 286 287
268 270 274 276 279 280 280 281 283 283 283 282 283 283 282 281 283 284 285 285 285 285 285 285 286 286 286 286 286 286 286 286 286 287 287 287 287 287 287 287 287 287 288
267 270 274 277 278 279 280 281 282 282 281 282 284 285 285 285 286 286 286 287 288 288 288 288 288 288 288 288 287 287 287 288 288 288 288 288 289 289 289 289 289 289 289
269 272 275 275 277 280 280 280 281 282 283 287 288 289 290 290 289 289 290 290 291 290 289 289 289 289 289 289 289 289 289 289 289 289 289 290 290 290 290 289 289 289 289
270 272 273 275 278 279 279 282 284 286 288 289 291 292 292 292 292 292 292 292 292 292 291 291 291 291 290 290 290 290 290 290 291 291 291 291 291 291 291 290 290 290 290
270 273 275 277 278 282 283 285 288 290 291 293 293 294 294 294 294 294 294 294 294 294 293 293 292 292 292 291 292 292 292 292 292 292 292 293 293 293 292 291 291 290 290
272 275 277 280 283 285 287 290 292 294 295 295 295 296 296 296 297 297 297 297 297 296 296 296 295 295 294 294 294 293 293 294 294 294 294 294 294 294 293 292 291 291 291
274 278 281 284 287 290 292 294 295 296 297 298 298 299 300 300 300 301 301 300 299 299 299 299 299 298 298 297 297 297 297 297 297 296 296 296 296 295 294 293 292 292 292
282 286 288 290 293 295 296 297 298 300 300 301 302 303 303 303 304 304 304 303 303 303 303 302 302 302 302 301 301 301 301 300 300 300 299 299 298 298 297 295 294 295 294
290 292 294 296 298 299 300 301 303 304 305 306 306 307 307 307 308 309 309 308 308 308 308 308 308 307 307 306 305 305 304 304 303 303 302 301 300 299 298 297 296 296 295
293 297 300 301 302 303 304 305 306 307 308 309 309 310 311 312 313 315 315 316 316 316 315 314 314 313 312 311 310 310 309 309 307 306 305 303 303 302 301 299 297 296 296
299 301 302 303 304 305 306 307 308 310 311 312 314 315 316 318 320 321 322 323 324 325 324 323 322 321 320 319 319 318 317 315 314 312 310 307 306 306 305 303 301 299 298
302 302 303 304 305 306 307 309 310 312 314 316 318 320 321 323 325 326 327 329 331 332 331 330 329 328 327 327 326 325 323 322 320 319 317 315 313 312 311 309 306 304 301
Height
5826 5827 5828 5829 5830 5831 5833 5835 5837 5839 5842 5844 5845 5847 5849 5850 5851 5852 5853 5854 5855 5856 5857 5857 5858 5858 5858 5858 5858 5858 5858 5857 5857 5856 5856 5855 5854 5853 5852 5851 5850 5849 5847
5825 5825 5826 5827 5828 5829 5831 5833 5834 5836 5838 5840 5841 5843 5844 5845 5846 5847 5848 5849 5850 5851 5851 5852 5852 5852 5852 5852 5851 5851 5851 5850 5850 5849 5848 5848 5847 5846 5845 5843 5842 5841 5839
5823 5824 5824 5825 5826 5827 5828 5829 5831 5833 5834 5835 5837 5838 5839 5840 5840 5841 5842 5843 5844 5845 5845 5845 5845 5846 5845 5845 5844 5844 5843 5843 5842 5841 5840 5839 5838 5837 5836 5835 5833 5832 5830
5823 5823 5824 5824 5824 5825 5826 5827 5828 5829 5830 5831 5832 5833 5834 5835 5836 5836 5837 5838 5838 5839 5839 5839 5839 5839 5839 5838 5837 5836 5835 5835 5834 5833 5831 5830 5829 5827 5826 5825 5823 5821 5819
5822 5822 5822 5822 5822 5823 5824 5824 5825 5826 5827 5828 5828 5829 5829 5830 5831 5831 5832 5832 5833 5833 5833 5832 5832 5832 5831 5830 5829 5828 5827 5826 5825 5823 5822 5820 5819 5817 5815 5814 5812 5810 5807
5820 5820 5820 5820 5820 5820 5821 5821 5822 5822 5823 5823 5824 5825 5825 5825 5826 5826 5826 5827 5827 5826 5826 5826 5825 5824 5823 5822 5821 5820 5819 5817 5816 5814 5812 5810 5808 5806 5804 5802 5800 5798 5795
5818 5818 5818 5818 5818 5818 5818 5818 5818 5819 5819 5820 5820 5820 5821 5821 5821 5821 5821 5821 5820 5820 5819 5818 5817 5816 5815 5814 5812 5811 5809 5807 5805 5803 5801 5799 5797 5794 5792 5789 5786 5783 5781
5815 5815 5814 5815 5815 5815 5815 5814 5814 5815 5815 5815 5815 5815 5815 5815 5815 5815 5815 5814 5813 5812 5811 5810 5809 5807 5806 5805 5803 5801 5799 5797 5794 5792 5789 5786 5784 5781 5778 5775 5772 5769 5765
5811 5811 5811 5811 5811 5811 5810 5810 5810 5811 5811 5810 5810 5810 5809 5809 5809 5808 5807 5806 5805 5804 5803 5801 5800 5798 5796 5794 5792 5790 5788 5785 5782 5779 5776 5773 5770 5767 5764 5761 5757 5754 5750
5806 5806 5806 5806 5806 5806 5806 5806 5805 5805 5805 5804 5804 5803 5803 5802 5801 5800 5799 5798 5796 5795 5793 5792 5790 5788 5786 5783 5781 5778 5775 5772 5769 5766 5762 5759 5755 5751 5747 5744 5740 5736 5732
5799 5800 5800 5800 5800 5800 5800 5800 5799 5799 5798 5797 5797 5796 5795 5794 5793 5792 5790 5788 5787 5785 5783 5781 5779 5777 5774 5771 5768 5765 5762 5758 5755 5751 5747 5743 5739 5735 5730 5726 5721 5717 5712
5792 5792 5793 5793 5793 5793 5793 5793 5792 5792 5791 5790 5789 5788 5786 5785 5784 5782 5780 5778 5777 5775 5773 5770 5767 5765 5762 5759 5755 5752 5748 5744 5740 5736 5731 5727 5722 5717 5712 5707 5702 5697 5692
5784 5785 5786 5786 5786 5786 5786 5785 5785 5784 5783 5782 5780 5779 5777 5776 5774 5773 5771 5768 5766 5764 5761 5758 5755 5752 5749 5745 5741 5737 5733 5729 5724 5720 5715 5710 5705 5699 5694 5689 5683 5677 5672
5778 5779 5779 5780 5779 5779 5779 5778 5777 5776 5775 5773 5772 5770 5768 5766 5764 5762 5760 5758 5755 5752 5749 5746 5743 5739 5735 5731 5726 5722 5717 5713 5708 5703 5697 5692 5687 5681 5676 5671 5665 5659 5654
5771 5771 5772 5772 5772 5771 5771 5770 5769 5768 5766 5765 5763 5761 5759 5757 5755 5752 5750 5747 5744 5740 5736 5733 5729 5724 5720 5716 5711 5706 5701 5696 5690 5685 5680 5674 5669 5663 5657 5652 5647 5642 5637
5763 5764 5764 5764 5764 5764 5763 5761 5760 5759 5757 5755 5754 5752 5750 5747 5744 5742 5738 5735 5731 5727 5723 5719 5714 5709 5705 5700 5694 5689 5684 5678 5673 5667 5662 5656 5651 5646 5640 5635 5630 5625 5620
5756 5757 5756 5756 5756 5755 5754 5753 5751 5750 5748 5746 5744 5742 5740 5737 5733 5730 5726 5722 5718 5713 5709 5704 5699 5694 5688 5683 5677 5672 5666 5661 5655 5650 5645 5640 5634 5629 5624 5619 5614 5609 5605
5750 5750 5749 5749 5748 5747 5746 5745 5744 5742 5740 5738 5735 5732 5729 5725 5721 5717 5713 5709 5704 5699 5694 5688 5683 5677 5672 5666 5661 5655 5650 5644 5639 5633 5628 5623 5618 5613 5608 5603 5599 5595 5591
5744 5744 5744 5743 5742 5741 5740 5738 5736 5734 5731 5728 5725 5721 5717 5713 5709 5704 5699 5694 5689 5684 5678 5673 5667 5661 5656 5650 5644 5639 5634 5628 5623 5618 5613 5608 5603 5599 5594 5589 5585 5581 5578
5738 5738 5738 5737 5736 5734 5732 5730 5727 5724 5721 5718 5714 5710 5706 5701 5696 5691 5686 5680 5674 5669 5663 5657 5652 5646 5640 5635 5629 5624 5619 5614 5609 5604 5599 5594 5589 5585 5581 5577 5573 5569 5566
5733 5732 5731 5730 5729 5726 5724 5722 5719 5715 5711 5707 5703 5699 5694 5689 5684 5678 5672 5667 5661 5655 5649 5644 5638 5632 5626 5621 5616 5610 5605 5600 5595 5590 5586 5581 5577 5572 5568 5565 5561 5558 5555
5727 5726 5724 5723 5721 5718 5716 5713 5709 5705 5701 5697 5692 5687 5682 5677 5672 5666 5661 5655 5649 5643 5637 5632 5626 5620 5614 5609 5604 5598 5593 5588 5583 5578 5574 5569 5565 5561 5557 5554 5551 5547 5544
5721 5719 5717 5715 5713 5710 5707 5704 5700 5695 5691 5686 5682 5677 5672 5667 5661 5656 5650 5644 5638 5632 5626 5620 5615 5609 5603 5598 5593 5587 5582 5577 5572 5568 5563 5559 5555 5551 5547 5544 5541 5538 5535
5714 5713 5710 5708 5705 5702 5698 5694 5690 5686 5682 5678 5673 5668 5663 5658 5652 5646 5640 5635 5629 5623 5617 5611 5605 5599 5594 5588 5583 5577 5572 5567 5562 5558 5553 5550 5546 5542 5538 5535 5532 5529 5526
5708 5706 5703 5700 5697 5694 5690 5686 5683 5679 5674 5670 5665 5660 5655 5650 5644 5639 5633 5627 5621 5615 5609 5603 5597 5592 5586 5580 5574 5569 5564 5559 5554 5549 5545 5541 5537 5534 5530 5527 5523 5520 5517
5701 5698 5696 5692 5689 5686 5682 5679 5675 5671 5667 5663 5658 5653 5648 5643 5638 5633 5627 5621 5615 5609 5603 5597 5591 5585 5580 5574 5568 5563 5557 5552 5547 5543 5539 5534 5531 5527 5523 5520 5516 5513 5510